Simultaneous Nadir Overpasses (SNOs) Predictions

Prediction of SNOs between FY3D and AQUA Satellite Orbit:

Table of predicted SNOs for the next 14.0 days since TLE Epoch: 11/9/2024
Index Date (FY3D) Time (FY3D) Lat,Lon (FY3D) SZA (FY3D ) Date (AQUA) Time (AQUA) Lat,Lon (AQUA) SZA (AQUA ) Distance(km) Time Diff (sec)
1 11/10/2024 06:35:25 -79.44,-114.87 83.10 11/10/2024 06:35:31 -79.45,-115.02 83.09 3.20 6
2 11/12/2024 16:57:19 79.63, -91.95 97.81 11/12/2024 16:58:16 79.63, -91.95 97.80 0.17 57
3 11/12/2024 17:47:58 -79.45, 77.00 82.43 11/12/2024 17:47:31 -79.45, 77.07 82.43 1.53 27
4 11/15/2024 04:09:47 79.50, 101.18 98.27 11/15/2024 04:10:09 79.51, 101.05 98.28 2.70 22
5 11/15/2024 05:00:26 -79.31, -89.93 81.96 11/15/2024 04:59:24 -79.32, -89.96 81.95 0.77 62
6 11/17/2024 14:31:37 -79.61, 124.79 80.99 11/17/2024 14:32:45 -79.61, 124.67 80.99 2.53 68
7 11/17/2024 15:22:17 79.44, -66.42 98.81 11/17/2024 15:22:00 79.44, -66.39 98.81 0.62 17
8 11/20/2024 01:44:07 -79.57, -42.95 80.46 11/20/2024 01:44:33 -79.57, -42.91 80.47 0.95 26
9 11/20/2024 02:34:43 79.28, 126.91 99.17 11/20/2024 02:33:45 79.29, 126.77 99.19 3.07 58
10 11/22/2024 12:05:56 79.67, -19.22 100.21 11/22/2024 12:07:01 79.66, -19.15 100.19 1.32 65



Historial Predications of SNOs between FY3D and AQUA
